This is the latest recevied weather packets stored in our database for station/object DL4JCP-6. If no packets are shown the sender has not sent any weather packets the latest 10 day(s).
| Time | Temp. | Humidity | Pressure | Rain* | Wind** | Luminosity | Snow |
|---|---|---|---|---|---|---|---|
| 1777672099 | 7.22° C | 78% | 1028.2 hPa | 0 mm | - | - | - |
| 1777671198 | 7.22° C | 79% | 1028 hPa | 0 mm | - | - | - |
| 1777670298 | 7.22° C | 78% | 1028.3 hPa | 0 mm | - | - | - |
| 1777669397 | 8.33° C | 75% | 1028.2 hPa | 0 mm | - | - | - |
| 1777668498 | 7.78° C | 77% | 1028 hPa | 0 mm | - | - | - |
| 1777667597 | 8.33° C | 76% | 1028.2 hPa | 0 mm | - | - | - |
| 1777666698 | 9.44° C | 73% | 1028.5 hPa | 0 mm | - | - | - |
| 1777665797 | 10° C | 72% | 1028.4 hPa | 0 mm | - | - | - |
| 1777665421 | 10° C | 72% | 1028.5 hPa | 0 mm | - | - | - |
| 1777665121 | 9.44° C | 72% | 1028.3 hPa | 0 mm | - | - | - |
| 1777664897 | 9.44° C | 73% | 1028.2 hPa | 0 mm | - | - | - |
| 1777664822 | 9.44° C | 73% | 1028.2 hPa | 0 mm | - | - | - |
| 1777664521 | 10° C | 73% | 1028.4 hPa | 0 mm | - | - | - |
| 1777664223 | 10° C | 73% | 1028.4 hPa | 0 mm | - | - | - |
| 1777663997 | 10.56° C | 72% | 1028.3 hPa | 0 mm | - | - | - |
| 1777663923 | 10.56° C | 72% | 1028.3 hPa | 0 mm | - | - | - |
| 1777663622 | 10.56° C | 71% | 1028.4 hPa | 0 mm | - | - | - |
| 1777663322 | 11.11° C | 71% | 1028.3 hPa | 0 mm | - | - | - |
| 1777663097 | 11.11° C | 70% | 1028.3 hPa | 0 mm | - | - | - |
| 1777663022 | 11.11° C | 70% | 1028.3 hPa | 0 mm | - | - | - |
| 1777662722 | 11.67° C | 69% | 1028.5 hPa | 0 mm | - | - | - |
| 1777662422 | 11.67° C | 69% | 1028.4 hPa | 0 mm | - | - | - |
| 1777662197 | 11.67° C | 68% | 1028.3 hPa | 0 mm | - | - | - |
| 1777662121 | 11.67° C | 68% | 1028.3 hPa | 0 mm | - | - | - |
| 1777661822 | 12.22° C | 67% | 1028.5 hPa | 0 mm | - | - | - |
* Rain latest hour (hover to see other rain measurements)
** Current wind speed in m/s (hover to see current wind gust speed)